"Pseudo-MPEC" for C3LPV42

Created 2020 Oct 19 0:07:17 UT using Find_Orb

Click here for an explanation of pseudo-MPECs

 
 Astrometry: 
     C3LPV42  C2020 10 17.36120203 55 52.00 -02 54 37.5    ~AH9b 22.39GVNEOCPG96
     C3LPV42  C2020 10 17.36632603 55 51.91 -02 54 33.5    ~AH9b 21.16GVNEOCPG96
     C3LPV42  C2020 10 17.37145803 55 51.89 -02 54 30.0    ~AH9b 21.23GVNEOCPG96
     C3LPV42  C2020 10 17.37659103 55 51.75 -02 54 26.5    ~AH9b 21.77GVNEOCPG96
     C3LPV42 KC2020 10 17.47555703 55 50.40 -02 53 08.5    ~AHBq       VNEOCPV06
     C3LPV42 KC2020 10 17.47873003 55 50.32 -02 53 05.9    ~AHBq       VNEOCPV06
     C3LPV42 KC2020 10 17.48190303 55 50.27 -02 53 02.7    ~AHBq 22.05GVNEOCPV06
     C3LPV42 KC2020 10 18.35683003 55 40.81 -02 41 18.1    ~AI97 21.32GVNEOCPV06
     C3LPV42 KC2020 10 18.36000003 55 40.76 -02 41 15.7    ~AI97 21.37GVNEOCPV06
     C3LPV42 KC2020 10 18.36317103 55 40.70 -02 41 13.1    ~AI97 21.26GVNEOCPV06

Station data:
(G96) Mt. Lemmon Survey  (N32.442754 W110.788720)  US/Arizona.  Observers T.
   A. Pruyne, B. M. Africano, E. J. Christensen, G. A. Farneth, D. C. Fuls,
   A. R. Gibbs, A. D. Grauer, H. Gröller, J. A. Johnson, R. A. Kowalski, S.
   M. Larson, G. J. Leonard, D. Rankin, R. L. Seaman, F. C. Shelly. 1.5-m
   reflector + 10K CCD.
(V06) Catalina Sky Survey-Kuiper  (N32.416847 W110.732550)  US/Arizona.
   Observers T. A. Pruyne, B. M. Africano, E. J. Christensen, G. A. Farneth,
   D. C. Fuls, A. R. Gibbs, A. D. Grauer, H. Gröller, J. A. Johnson, R. A.
   Kowalski, S. M. Larson, G. J. Leonard, D. Rankin, R. L. Seaman, F. C.
   Shelly. 1.55-m reflector + CCD.

Orbital elements:  C3LPV42
   Perihelion 2020 Oct 17.843012 TT = 20:13:56 (JD 2459140.343012)
Epoch 2020 Oct 18.0 TT = JDT 2459140.5   Earth MOID: 0.5491   Ma: 0.0793
M   0.03818419                      (J2000 ecliptic)
n   0.24322983     Peri.  325.58372
a   2.54170312     Node    69.18097
e   0.4035609      Incl.   15.68641
P   4.05           H   21.0     G   0.15   q 1.51597096  Q 3.56743529
From 10 observations 2020 Oct. 17-18 (24.0 hr); mean residual 0".57
Residuals in arcseconds: 
201017 G96  .57-  .82+    201017 V06  1.2+  .83-    201018 V06  .04-  .00     
201017 G96  .78-  .77+    201017 V06  .66+  .76-    201018 V06  .09-  .01+    
201017 G96  .07+  .22+    201017 V06  .61+  .08-    
201017 G96  .88-  .34-    201018 V06  .14-  .18+    

Ephemerides (geocentric):
Date (UTC) HH   RA              Dec         delta   r     elong  mag
---- -- -- --  -------------   -----------  ------ ------ -----  ---
2020 10 19 00  03 55 31.791   -02 32 19.60  .59700 1.5160 143.0 21.9
2020 10 19 01  03 55 31.177   -02 31 44.88  .59684 1.5160 143.0 21.9
2020 10 19 02  03 55 30.558   -02 31 10.11  .59669 1.5160 143.1 21.9
2020 10 19 03  03 55 29.933   -02 30 35.29  .59653 1.5160 143.1 21.9
2020 10 19 04  03 55 29.304   -02 30 00.43  .59638 1.5160 143.1 21.9
2020 10 19 05  03 55 28.669   -02 29 25.53  .59623 1.5160 143.2 21.9
2020 10 19 06  03 55 28.029   -02 28 50.58  .59607 1.5160 143.2 21.9
2020 10 19 07  03 55 27.384   -02 28 15.58  .59592 1.5160 143.3 21.9
2020 10 19 08  03 55 26.734   -02 27 40.54  .59577 1.5160 143.3 21.9
2020 10 19 09  03 55 26.079   -02 27 05.45  .59562 1.5160 143.3 21.9
2020 10 19 10  03 55 25.419   -02 26 30.32  .59546 1.5160 143.4 21.8
2020 10 19 11  03 55 24.754   -02 25 55.14  .59531 1.5160 143.4 21.8
2020 10 19 12  03 55 24.083   -02 25 19.92  .59516 1.5160 143.4 21.8
2020 10 19 13  03 55 23.408   -02 24 44.65  .59501 1.5160 143.5 21.8
2020 10 19 14  03 55 22.727   -02 24 09.34  .59486 1.5160 143.5 21.8
2020 10 19 15  03 55 22.041   -02 23 33.98  .59471 1.5161 143.6 21.8
2020 10 19 16  03 55 21.350   -02 22 58.57  .59456 1.5161 143.6 21.8
2020 10 19 17  03 55 20.654   -02 22 23.12  .59441 1.5161 143.6 21.8
2020 10 19 18  03 55 19.953   -02 21 47.63  .59426 1.5161 143.7 21.8
2020 10 19 19  03 55 19.247   -02 21 12.08  .59411 1.5161 143.7 21.8
2020 10 19 20  03 55 18.536   -02 20 36.50  .59396 1.5161 143.8 21.8
2020 10 19 21  03 55 17.819   -02 20 00.86  .59381 1.5161 143.8 21.8
2020 10 19 22  03 55 17.098   -02 19 25.19  .59366 1.5161 143.8 21.8
2020 10 19 23  03 55 16.371   -02 18 49.46  .59351 1.5161 143.9 21.8
2020 10 20 00  03 55 15.640   -02 18 13.69  .59336 1.5161 143.9 21.8
2020 10 20 01  03 55 14.903   -02 17 37.88  .59321 1.5161 143.9 21.8
2020 10 20 02  03 55 14.161   -02 17 02.02  .59306 1.5161 144.0 21.8
2020 10 20 03  03 55 13.414   -02 16 26.11  .59291 1.5161 144.0 21.8
2020 10 20 04  03 55 12.662   -02 15 50.16  .59277 1.5161 144.1 21.8
2020 10 20 05  03 55 11.905   -02 15 14.16  .59262 1.5161 144.1 21.8
2020 10 20 06  03 55 11.143   -02 14 38.11  .59247 1.5161 144.1 21.8
2020 10 20 07  03 55 10.376   -02 14 02.02  .59232 1.5161 144.2 21.8
2020 10 20 08  03 55 09.604   -02 13 25.88  .59218 1.5161 144.2 21.8
2020 10 20 09  03 55 08.827   -02 12 49.70  .59203 1.5161 144.2 21.8
2020 10 20 10  03 55 08.045   -02 12 13.47  .59188 1.5161 144.3 21.8
2020 10 20 11  03 55 07.257   -02 11 37.20  .59174 1.5161 144.3 21.8
2020 10 20 12  03 55 06.465   -02 11 00.88  .59159 1.5162 144.4 21.8
2020 10 20 13  03 55 05.667   -02 10 24.51  .59145 1.5162 144.4 21.8
2020 10 20 14  03 55 04.865   -02 09 48.10  .59130 1.5162 144.4 21.8
2020 10 20 15  03 55 04.057   -02 09 11.64  .59115 1.5162 144.5 21.8
2020 10 20 16  03 55 03.245   -02 08 35.14  .59101 1.5162 144.5 21.8
2020 10 20 17  03 55 02.427   -02 07 58.59  .59086 1.5162 144.6 21.8
2020 10 20 18  03 55 01.605   -02 07 21.99  .59072 1.5162 144.6 21.8
2020 10 20 19  03 55 00.777   -02 06 45.35  .59058 1.5162 144.6 21.8
2020 10 20 20  03 54 59.944   -02 06 08.66  .59043 1.5162 144.7 21.8
2020 10 20 21  03 54 59.107   -02 05 31.92  .59029 1.5162 144.7 21.8
2020 10 20 22  03 54 58.264   -02 04 55.14  .59014 1.5162 144.8 21.8
2020 10 20 23  03 54 57.416   -02 04 18.31  .59000 1.5162 144.8 21.8